Theta_e
345 348 346 345 344 345 348 341 339 337 341 348 347 344 349 351 350 350 349 349 349 347 346 347 349 349 349 348 349 349 348 349 350
341 345 346 347 344 344 345 346 338 338 344 347 346 341 346 344 347 350 350 349 350 349 346 346 348 348 349 349 349 348 348 349 350
333 338 340 344 344 343 343 342 343 343 339 344 342 344 345 342 339 348 352 350 351 350 348 348 348 345 349 348 347 349 350 349 350
335 339 339 340 342 344 343 343 342 341 342 343 343 342 344 339 341 345 351 352 352 350 347 348 346 348 349 349 349 349 350 348 349
336 337 339 342 343 344 344 344 344 340 340 340 340 341 342 338 341 347 354 354 352 351 349 347 348 348 349 350 349 350 350 348 349
336 349 347 343 344 344 344 344 343 342 341 339 339 341 342 343 350 354 355 355 353 352 351 347 346 350 351 350 349 350 348 349 348
344 350 350 349 346 342 342 343 344 343 342 344 341 340 340 344 353 356 354 354 355 354 352 352 351 349 349 351 350 349 347 342 348
350 350 350 349 348 346 350 348 344 343 344 346 345 346 350 349 355 355 354 355 355 353 353 353 353 349 350 350 348 346 343 348 348
349 348 346 344 343 345 346 349 355 354 354 352 349 345 346 354 356 356 357 356 356 355 354 353 353 352 351 351 350 348 348 349 350
342 339 339 341 341 342 345 348 347 349 352 354 356 353 349 351 352 355 355 354 354 354 354 353 353 351 352 351 349 350 350 350 350
338 335 336 336 336 340 345 346 350 350 348 349 353 353 351 348 347 349 350 354 354 355 354 354 354 353 352 350 351 350 350 348 351
335 333 331 334 334 335 336 341 344 346 344 341 340 341 344 345 347 344 347 344 343 348 352 355 354 354 353 351 351 350 350 350 351
335 333 332 333 333 333 333 333 333 334 336 335 333 332 331 331 334 341 346 343 342 339 347 351 353 350 348 350 350 349 347 344 348
336 334 332 331 331 330 331 333 332 331 332 331 332 331 330 330 330 331 335 340 340 344 342 339 334 333 331 333 335 343 348 347 349
326 329 332 332 331 330 331 332 333 332 332 331 331 331 331 330 330 330 330 332 339 346 338 333 333 333 332 332 333 334 346 349 350
328 328 327 327 327 327 327 327 330 333 331 332 332 333 332 332 332 331 332 332 339 343 338 334 332 333 331 332 335 333 339 349 352
323 324 326 326 327 327 327 328 328 329 331 333 333 333 333 333 332 331 332 333 333 341 342 335 333 332 331 333 330 331 331 344 348
321 323 326 328 328 329 330 331 331 332 332 332 331 331 330 330 331 332 332 334 331 334 341 337 332 331 332 333 331 331 333 342 335
327 328 327 326 326 326 326 328 329 329 329 328 328 328 328 328 329 332 333 333 334 330 333 341 341 338 335 333 332 333 333 340 343
326 325 325 325 325 326 328 329 330 330 329 328 329 329 328 328 330 332 333 334 334 333 332 333 340 340 337 334 334 331 331 343 342
Wind_Speed
5 6 4 6 8 10 12 12 11 9 18 18 21 12 14 18 22 25 28 26 24 23 25 25 25 23 22 23 21 19 18 16 14
7 8 5 6 8 10 13 13 18 16 19 23 24 23 20 21 25 22 28 25 24 23 22 24 23 22 25 24 23 22 21 19 17
9 5 4 5 6 8 10 11 17 22 24 20 23 22 22 21 19 25 27 25 24 23 25 23 26 26 25 26 23 23 21 19 17
9 8 8 2 5 9 11 10 11 13 22 23 22 21 26 23 23 28 26 26 26 24 24 22 21 21 22 25 23 25 25 22 20
9 9 9 6 4 10 11 12 15 12 13 17 22 26 27 28 30 31 27 28 24 24 25 25 24 24 24 23 23 25 26 23 21
8 8 7 5 1 4 8 14 15 13 18 23 24 27 27 29 31 30 26 26 25 24 23 25 25 25 25 28 27 26 26 22 19
6 5 6 7 6 2 7 14 20 23 24 23 28 32 31 34 29 24 25 24 25 26 25 23 25 28 27 27 28 26 26 24 18
6 8 8 6 6 6 5 9 16 23 24 25 26 28 31 32 28 24 25 26 25 24 25 26 25 26 26 26 24 24 23 22 16
2 6 6 5 6 7 10 15 4 6 11 15 19 24 25 24 24 25 28 27 28 26 25 25 27 27 29 27 26 26 23 21 19
5 5 6 7 6 9 15 14 12 13 13 14 14 21 24 23 23 23 24 24 25 26 28 28 28 27 28 27 24 25 24 23 21
6 3 5 5 7 14 14 13 13 15 20 24 19 9 10 18 25 21 21 26 27 27 28 28 27 26 24 26 26 25 25 24 23
2 1 0 3 7 9 9 9 9 11 14 15 15 17 18 20 21 24 17 19 32 36 35 29 27 27 27 27 28 27 26 24 24
5 5 3 5 4 2 1 1 3 5 6 9 10 12 14 15 16 18 19 17 25 31 31 30 24 14 14 23 25 24 23 21 24
10 12 9 6 5 6 6 5 6 6 6 10 10 12 14 15 15 14 15 15 14 17 12 24 20 29 39 27 19 13 21 28 25
6 6 6 5 4 5 7 8 9 11 10 11 12 13 15 16 13 13 16 13 14 7 15 5 6 11 24 28 25 16 13 19 22
4 3 3 4 6 9 12 12 11 12 17 14 13 14 15 16 15 15 14 14 11 4 12 21 19 24 14 27 23 23 16 20 20
5 7 9 9 9 12 15 17 16 17 18 16 16 17 18 17 18 16 12 13 14 7 14 17 21 24 25 31 33 36 21 19 23
6 7 8 8 10 12 15 14 16 15 14 13 15 17 20 22 23 22 15 10 11 17 8 20 25 29 27 28 25 10 23 24 17
2 3 8 12 15 16 19 18 20 20 20 21 23 26 26 26 24 23 20 14 12 19 17 15 23 28 30 35 25 15 6 16 17
5 11 15 16 19 23 24 24 24 21 23 28 31 30 28 27 22 20 19 16 13 17 22 13 20 25 29 34 31 22 15 8 13
Wind_Direction
174 140 133 191 203 191 168 161 158 213 212 192 205 240 217 225 237 246 252 239 226 224 225 228 229 225 224 226 229 229 232 235 240
159 100 117 239 232 210 188 184 195 198 199 194 211 223 235 236 233 243 253 237 232 230 233 232 227 232 226 226 227 233 231 233 241
357 23 72 217 236 213 217 186 207 219 225 230 228 238 245 257 249 245 255 239 234 233 233 234 235 233 229 229 239 233 236 237 241
329 339 342 276 201 230 225 231 214 231 242 243 246 249 240 244 254 247 256 245 232 233 232 229 225 225 234 236 241 239 240 240 243
298 328 331 313 175 204 216 243 251 270 264 258 251 254 237 237 258 262 251 243 239 234 236 233 236 234 234 237 240 240 234 237 241
340 323 357 50 170 230 236 247 241 253 265 258 253 252 246 252 253 249 239 234 231 232 231 230 234 234 235 234 235 232 232 233 242
335 19 65 26 45 282 240 237 242 250 259 255 254 256 257 259 258 242 242 239 234 234 234 231 232 235 240 239 235 229 228 233 235
11 63 54 45 47 48 43 233 237 244 253 265 260 254 251 253 255 249 247 242 237 237 238 237 236 236 235 240 237 228 231 230 237
51 51 67 33 31 47 30 30 359 263 274 273 263 261 267 262 265 259 256 256 244 237 238 239 235 238 238 241 239 239 236 234 233
98 66 49 59 52 49 47 36 26 27 14 349 295 255 260 287 285 273 264 263 255 244 239 239 241 243 238 238 238 238 238 236 234
118 86 74 66 78 67 53 50 49 42 40 45 41 23 13 11 11 356 320 293 276 264 250 242 243 251 244 244 240 237 237 238 233
59 108 188 122 89 82 70 51 41 36 38 37 34 29 24 23 20 10 339 343 345 327 286 258 251 248 246 238 241 238 234 231 231
325 305 219 186 156 147 122 78 5 1 2 5 10 7 10 17 17 8 10 335 310 325 325 284 275 275 307 262 258 253 241 242 237
226 233 235 270 284 305 311 292 287 304 315 327 333 336 345 357 10 4 7 2 358 13 61 34 13 355 344 341 354 321 255 252 234
352 346 344 346 318 322 327 297 283 291 291 306 302 309 318 331 344 354 352 355 357 154 146 122 341 280 307 307 297 309 271 231 238
201 202 257 273 286 294 300 295 280 267 282 287 279 288 297 310 322 335 343 345 348 190 188 165 159 153 133 274 276 265 254 220 221
235 253 266 280 276 278 285 291 292 284 289 292 293 290 293 298 306 312 323 336 329 323 212 206 191 197 212 205 203 234 247 247 200
274 290 307 317 311 301 292 296 290 294 297 299 299 301 300 299 299 294 292 295 317 306 258 220 205 210 222 227 257 267 236 210 220
14 27 333 321 311 301 298 290 284 286 291 297 298 298 299 297 297 292 280 276 284 296 293 252 241 237 234 237 253 262 286 233 217
291 305 309 306 304 299 293 288 281 282 295 295 291 290 290 291 285 284 273 264 257 274 286 284 248 255 258 244 249 254 256 234 201